• In Uzbekistan
  • List of Countries
  • For 7 days
  • Water Temperature
  • Satellite Maps
  • Weather Map
  • Weather Widgets
  • user-avatar
    Login

    Hourly Weather Namsk

    Today, 18 August, Saturday

    Time Temperature Precipitation Wind Pressure Humidity
    00:00 +7°C° 0 mm 1 mps 755 mmHg 95%
    01:00 +7°C° 0 mm 1 mps 756 mmHg 95%
    02:00 +7°C° 0 mm 1 mps 756 mmHg 96%
    03:00 +6°C° 0 mm 1 mps 756 mmHg 96%
    04:00 +7°C° 0 mm 1 mps 756 mmHg 92%
    05:00 +8°C° 0 mm 1 mps 756 mmHg 88%
    06:00 +9°C° 0 mm 1 mps 757 mmHg 84%
    07:00 +10°C° 0 mm 2 mps 757 mmHg 75%
    08:00 +13°C° 0 mm 2 mps 757 mmHg 65%
    09:00 +15°C° 0 mm 2 mps 757 mmHg 56%
    10:00 +17°C° 0 mm 2 mps 756 mmHg 52%
    11:00 +18°C° 0 mm 2 mps 756 mmHg 48%
    12:00 +19°C° 0 mm 2 mps 756 mmHg 44%
    13:00 +19°C° 0 mm 2 mps 756 mmHg 42%
    14:00 +20°C° 0 mm 2 mps 756 mmHg 41%
    15:00 +20°C° 0 mm 2 mps 756 mmHg 39%
    16:00 +20°C° 0 mm 1 mps 755 mmHg 46%
    17:00 +19°C° 0 mm 1 mps 755 mmHg 52%
    18:00 +16°C° 0 mm 0 mps 755 mmHg 58%
    19:00 +14°C° 0 mm 0 mps 756 mmHg 62%
    20:00 +12°C° 0 mm 0 mps 756 mmHg 66%
    21:00 +10°C° 0 mm 0 mps 756 mmHg 70%
    22:00 +11°C° 0 mm 1 mps 756 mmHg 71%
    23:00 +11°C° 0 mm 1 mps 756 mmHg 72%

    Tomorrow, 19 August, Sunday

    Time Temperature Precipitation Wind Pressure Humidity
    00:00 +10°C° 0 mm 1 mps 756 mmHg 73%
    01:00 +11°C° 0 mm 1 mps 756 mmHg 73%
    02:00 +11°C° 0 mm 1 mps 756 mmHg 72%
    03:00 +11°C° 0 mm 1 mps 756 mmHg 72%
    04:00 +12°C° 0 mm 2 mps 755 mmHg 71%
    05:00 +13°C° 0 mm 2 mps 755 mmHg 71%
    06:00 +14°C° 0 mm 2 mps 755 mmHg 70%
    07:00 +15°C° 0 mm 2 mps 755 mmHg 69%
    08:00 +16°C° 0 mm 2 mps 755 mmHg 68%
    09:00 +17°C° 0 mm 2 mps 755 mmHg 67%
    10:00 +19°C° 0 mm 2 mps 754 mmHg 61%
    11:00 +21°C° 0 mm 2 mps 754 mmHg 55%
    12:00 +24°C° 0 mm 3 mps 753 mmHg 49%
    13:00 +24°C° 0 mm 2 mps 753 mmHg 50%
    14:00 +24°C° 0 mm 2 mps 753 mmHg 50%
    15:00 +24°C° 0 mm 2 mps 752 mmHg 51%
    16:00 +23°C° 0 mm 2 mps 752 mmHg 56%
    17:00 +21°C° 0 mm 2 mps 751 mmHg 61%
    18:00 +20°C° 0 mm 2 mps 751 mmHg 67%
    19:00 +18°C° 0 mm 2 mps 751 mmHg 73%
    20:00 +17°C° 0 mm 2 mps 751 mmHg 79%
    21:00 +15°C° 0 mm 2 mps 750 mmHg 86%
    22:00 +15°C° 0 mm 2 mps 750 mmHg 88%
    23:00 +14°C° 0 mm 2 mps 750 mmHg 91%

    Day after tomorrow, 20 August, Monday

    Time Temperature Precipitation Wind Pressure Humidity
    00:00 +14°C° 0 mm 2 mps 750 mmHg 93%
    01:00 +14°C° 0 mm 2 mps 749 mmHg 93%
    02:00 +14°C° 0 mm 2 mps 749 mmHg 92%
    03:00 +14°C° 0 mm 2 mps 748 mmHg 91%
    04:00 +13°C° 0 mm 3 mps 748 mmHg 88%
    05:00 +14°C° 0 mm 3 mps 748 mmHg 85%
    06:00 +16°C° 0 mm 3 mps 747 mmHg 82%
    07:00 +17°C° 0.2 mm 3 mps 747 mmHg 79%
    08:00 +18°C° 0.2 mm 4 mps 746 mmHg 76%
    09:00 +19°C° 0.2 mm 4 mps 746 mmHg 73%
    10:00 +18°C° 2.5 mm 4 mps 746 mmHg 80%
    11:00 +17°C° 2.5 mm 4 mps 746 mmHg 88%
    12:00 +15°C° 2.5 mm 4 mps 745 mmHg 95%
    13:00 +16°C° 0.8 mm 3 mps 745 mmHg 94%
    14:00 +17°C° 0.8 mm 3 mps 745 mmHg 94%
    15:00 +17°C° 0.8 mm 3 mps 745 mmHg 93%
    16:00 +17°C° 0.1 mm 3 mps 745 mmHg 93%
    17:00 +18°C° 0.1 mm 2 mps 745 mmHg 92%
    18:00 +18°C° 0.1 mm 2 mps 745 mmHg 92%
    19:00 +17°C° 0 mm 2 mps 745 mmHg 94%
    20:00 +16°C° 0 mm 2 mps 745 mmHg 96%
    21:00 +15°C° 0 mm 1 mps 745 mmHg 98%
    22:00 +14°C° 0 mm 1 mps 745 mmHg 97%
    23:00 +14°C° 0 mm 1 mps 745 mmHg 97%

    21 August, Tuesday

    Time Temperature Precipitation Wind Pressure Humidity
    00:00 +13°C° 0 mm 1 mps 745 mmHg 97%
    01:00 +13°C° 0 mm 1 mps 745 mmHg 97%
    02:00 +13°C° 0 mm 1 mps 746 mmHg 96%
    03:00 +12°C° 0 mm 1 mps 746 mmHg 96%
    04:00 +12°C° 0 mm 0 mps 746 mmHg 94%
    05:00 +13°C° 0 mm 0 mps 746 mmHg 92%
    06:00 +14°C° 0 mm 0 mps 746 mmHg 91%
    07:00 +15°C° 0.1 mm 0 mps 746 mmHg 86%
    08:00 +16°C° 0.1 mm 0 mps 746 mmHg 81%
    09:00 +18°C° 0.1 mm 0 mps 746 mmHg 76%
    10:00 +20°C° 0 mm 0 mps 746 mmHg 65%
    11:00 +23°C° 0 mm 1 mps 746 mmHg 54%
    12:00 +25°C° 0 mm 1 mps 746 mmHg 43%
    13:00 +24°C° 0 mm 1 mps 746 mmHg 47%
    14:00 +23°C° 0 mm 1 mps 745 mmHg 51%
    15:00 +22°C° 0 mm 1 mps 745 mmHg 55%
    16:00 +22°C° 0 mm 1 mps 745 mmHg 59%
    17:00 +20°C° 0 mm 2 mps 745 mmHg 63%
    18:00 +19°C° 0 mm 2 mps 745 mmHg 67%
    19:00 +18°C° 0 mm 2 mps 744 mmHg 71%
    20:00 +17°C° 0 mm 2 mps 744 mmHg 75%
    21:00 +16°C° 0 mm 3 mps 744 mmHg 79%
    22:00 +16°C° 0 mm 3 mps 743 mmHg 79%
    23:00 +16°C° 0 mm 3 mps 743 mmHg 80%

    22 August, Wednesday

    Time Temperature Precipitation Wind Pressure Humidity
    00:00 +16°C° 0 mm 3 mps 742 mmHg 81%
    01:00 +15°C° 0 mm 4 mps 741 mmHg 86%
    02:00 +15°C° 0 mm 4 mps 741 mmHg 90%
    03:00 +14°C° 0 mm 4 mps 740 mmHg 94%
    04:00 +15°C° 0 mm 4 mps 739 mmHg 92%
    05:00 +16°C° 0 mm 5 mps 739 mmHg 90%
    06:00 +17°C° 0 mm 5 mps 738 mmHg 88%
    07:00 +17°C° 0.2 mm 5 mps 738 mmHg 87%
    08:00 +19°C° 0.2 mm 6 mps 737 mmHg 85%
    09:00 +20°C° 0.2 mm 6 mps 737 mmHg 83%
    10:00 +17°C° 2.2 mm 5 mps 737 mmHg 87%
    11:00 +17°C° 2.2 mm 4 mps 737 mmHg 91%
    12:00 +16°C° 2.2 mm 3 mps 736 mmHg 95%
    13:00 +14°C° 1 mm 3 mps 736 mmHg 94%
    14:00 +14°C° 1 mm 3 mps 737 mmHg 93%
    15:00 +14°C° 1 mm 3 mps 737 mmHg 93%
    16:00 +13°C° 0.1 mm 3 mps 737 mmHg 92%
    17:00 +13°C° 0.1 mm 3 mps 737 mmHg 90%
    18:00 +12°C° 0.1 mm 3 mps 738 mmHg 89%
    19:00 +12°C° 0.1 mm 3 mps 738 mmHg 91%
    20:00 +11°C° 0.1 mm 3 mps 738 mmHg 92%
    21:00 +10°C° 0.1 mm 3 mps 738 mmHg 94%
    22:00 +10°C° 0 mm 3 mps 738 mmHg 93%
    23:00 +9°C° 0 mm 3 mps 739 mmHg 93%

    23 August, Thursday

    Time Temperature Precipitation Wind Pressure Humidity
    00:00 +9°C° 0 mm 3 mps 739 mmHg 92%
    01:00 +9°C° 0.1 mm 3 mps 739 mmHg 92%
    02:00 +8°C° 0.1 mm 3 mps 739 mmHg 93%
    03:00 +8°C° 0.1 mm 3 mps 739 mmHg 93%
    04:00 +8°C° 0.3 mm 3 mps 739 mmHg 94%
    05:00 +7°C° 0.3 mm 4 mps 739 mmHg 94%
    06:00 +7°C° 0.3 mm 4 mps 740 mmHg 95%
    07:00 +7°C° 0.5 mm 4 mps 740 mmHg 95%
    08:00 +7°C° 0.5 mm 4 mps 740 mmHg 94%
    09:00 +7°C° 0.5 mm 5 mps 741 mmHg 94%
    10:00 +7°C° 0.5 mm 5 mps 741 mmHg 94%
    11:00 +7°C° 0.5 mm 5 mps 742 mmHg 94%
    12:00 +7°C° 0.5 mm 5 mps 742 mmHg 93%
    13:00 +7°C° 0.3 mm 5 mps 743 mmHg 93%
    14:00 +7°C° 0.3 mm 5 mps 743 mmHg 93%
    15:00 +7°C° 0.3 mm 5 mps 744 mmHg 92%
    16:00 +7°C° 0.1 mm 4 mps 744 mmHg 91%
    17:00 +7°C° 0.1 mm 4 mps 744 mmHg 89%
    18:00 +8°C° 0.1 mm 4 mps 745 mmHg 88%
    19:00 +8°C° 0 mm 3 mps 745 mmHg 89%
    20:00 +7°C° 0 mm 3 mps 745 mmHg 90%
    21:00 +7°C° 0 mm 2 mps 745 mmHg 90%
    22:00 +6°C° 0 mm 2 mps 745 mmHg 92%
    23:00 +5°C° 0 mm 2 mps 745 mmHg 93%
    Show more